Location: Góry Miechowskie
(50.3599°N, 20.1803°E)
Time: 15:54:57
(UTC+00:00)

A-11 Canister half - Visible Passes

Search period start: 13 September 2024 00:00
Search period end: 23 September 2024 00:00
Orbit: 1523 x 1684 km, 47.3° (Epoch: 12 September)

Date Brightness Start Highest point End Pass type
(mag) Time Alt. Az. Time Alt. Az. Time Alt. Az.
13 Sep 9.5 17:38:21 10° W 17:47:58 61° SSW 17:57:50 10° SE visible
13 Sep 10.2 19:43:39 10° W 19:51:45 29° SW 19:56:08 22° S visible
14 Sep 9.5 17:16:34 10° W 17:26:11 62° SSW 17:36:04 10° SE visible
14 Sep 10.2 19:21:49 10° W 19:30:02 31° SW 19:35:33 19° S visible
15 Sep 10.2 18:59:59 10° W 19:08:20 32° SW 19:15:04 15° S visible
16 Sep 10.2 18:38:10 10° W 18:46:36 33° SW 18:54:38 12° SSE visible
17 Sep 10.2 18:16:21 10° W 18:24:52 35° SW 18:33:35 10° SSE visible
18 Sep 10.2 17:54:33 10° W 18:03:09 36° SW 18:11:57 10° SSE visible
18 Sep 11.2 20:04:52 10° WSW 20:05:52 10° WSW 20:06:52 10° SW visible
19 Sep 10.2 17:32:44 10° W 17:41:25 37° SW 17:50:19 10° SSE visible
19 Sep 11.1 19:41:44 10° WSW 19:44:13 11° WSW 19:46:42 10° SW visible
20 Sep 10.2 17:10:57 10° W 17:19:42 39° SW 17:28:40 10° SSE visible
20 Sep 11.1 19:19:14 10° WSW 19:22:33 12° WSW 19:25:53 10° SW visible
21 Sep 11.1 18:56:55 10° W 19:00:52 13° WSW 19:04:52 10° SSW visible
22 Sep 11.1 18:34:44 10° W 18:39:12 14° SW 18:43:43 10° SSW visible
